This is the latest recevied weather packets stored in our database for station/object W4TJP. If no packets are shown the sender has not sent any weather packets the latest 10 day(s).
| Time | Temp. | Humidity | Pressure | Rain* | Wind** | Luminosity | Snow |
|---|---|---|---|---|---|---|---|
| 1777681035 | 12.78° C | 66% | 1014 hPa | 0 mm | - | 4 W/m² | - |
| 1777680734 | 12.78° C | 63% | 1013.6 hPa | 0 mm | - | 8 W/m² | - |
| 1777680431 | 12.78° C | 63% | 1013.5 hPa | 0 mm | - | 10 W/m² | - |
| 1777680129 | 12.78° C | 63% | 1013.4 hPa | 0 mm | - | 11 W/m² | - |
| 1777679824 | 12.78° C | 67% | 1013.2 hPa | 0 mm | - | 17 W/m² | - |
| 1777679520 | 13.33° C | 67% | 1013.3 hPa | 0 mm | - | 18 W/m² | - |
| 1777679216 | 13.33° C | 65% | 1013.4 hPa | 0 mm | - | 18 W/m² | - |
| 1777678913 | 13.89° C | 64% | 1013.3 hPa | 0 mm | - | 23 W/m² | - |
| 1777678611 | 13.89° C | 64% | 1013.3 hPa | 0 mm | - | 28 W/m² | - |
| 1777678308 | 13.89° C | 63% | 1013.2 hPa | 0 mm | - | 31 W/m² | - |
| 1777678004 | 14.44° C | 63% | 1013.3 hPa | 0 mm | - | 30 W/m² | - |
| 1777677702 | 14.44° C | 64% | 1013.3 hPa | 0 mm | - | 42 W/m² | - |
| 1777677399 | 15° C | 64% | 1013.1 hPa | 0 mm | - | 47 W/m² | - |
| 1777677097 | 15° C | 63% | 1012.9 hPa | 0 mm | - | 58 W/m² | - |
| 1777676795 | 14.44° C | 64% | 1012.9 hPa | 0 mm | - | 52 W/m² | - |
| 1777676493 | 15° C | 65% | 1012.7 hPa | 0 mm | - | 42 W/m² | - |
| 1777676191 | 15° C | 63% | 1012.6 hPa | 0 mm | - | 55 W/m² | - |
| 1777675887 | 15.56° C | 64% | 1012.6 hPa | 0 mm | - | 73 W/m² | - |
| 1777675584 | 15.56° C | 65% | 1012.6 hPa | 0 mm | - | 78 W/m² | - |
| 1777675281 | 15.56° C | 64% | 1012.5 hPa | 0 mm | - | 81 W/m² | - |
| 1777674978 | 15.56° C | 65% | 1012.7 hPa | 0 mm | - | 88 W/m² | - |
| 1777674674 | 15.56° C | 66% | 1012.6 hPa | 0 mm | - | 88 W/m² | - |
| 1777674386 | 15.56° C | 64% | 1012.4 hPa | 0 mm | - | 98 W/m² | - |
| 1777674068 | 15.56° C | 65% | 1012.5 hPa | 0 mm | - | 101 W/m² | - |
| 1777673764 | 15.56° C | 66% | 1012.7 hPa | 0 mm | - | 93 W/m² | - |
* Rain latest hour (hover to see other rain measurements)
** Current wind speed in m/s (hover to see current wind gust speed)